KB9ZI Weather Reports


Display with metric or nautical units.
time (UTC)temp
F
wind
direction
speed
MPH
gust
MPH
rain 1hr
in
rain 24hr
in
rain mn
in
humidity
%
barometer
mb
20260506035531 41 202 0.0 3.0 0.00 0.00 0.00 63 1013.0
20260506035409 41 202 0.0 3.0 0.00 0.00 0.00 62 1013.0
20260506035330 41 213 0.0 3.0 0.00 0.00 0.00 62 1013.0
20260506035130 41 213 0.0 3.0 0.00 0.00 0.00 63 1013.1
20260506035027 41 237 0.0 3.0 0.00 0.00 0.00 63 1013.0
20260506034908 41 237 0.0 3.0 0.00 0.00 0.00 63 1013.0
20260506034734 41 237 0.0 3.0 0.00 0.00 0.00 62 1013.0
20260506034521 41 237 0.0 1.0 0.00 0.00 0.00 62 1013.0
20260506034405 42 237 0.0 2.0 0.00 0.00 0.00 61 1013.0
20260506034315 42 238 0.0 2.0 0.00 0.00 0.00 62 1013.0
20260506034115 42 237 0.0 2.0 0.00 0.00 0.00 61 1012.9
20260506033904 42 237 0.0 2.0 0.00 0.00 0.00 61 1012.9
20260506033719 42 237 0.0 2.0 0.00 0.00 0.00 61 1012.9
20260506033503 42 237 0.0 2.0 0.00 0.00 0.00 61 1012.8
20260506033407 42 237 0.0 1.0 0.00 0.00 0.00 61 1012.8
20260506033401 42 237 0.0 1.0 0.00 0.00 0.00 61 1012.8
20260506033104 42 237 0.0 1.0 0.00 0.00 0.00 60 1012.8
20260506032901 42 237 0.0 1.0 0.00 0.00 0.00 60 1012.9
20260506032708 42 223 0.0 1.0 0.00 0.00 0.00 60 1012.8
20260506032504 42 223 0.0 2.0 0.00 0.00 0.00 60 1012.8
20260506032404 42 223 0.0 2.0 0.00 0.00 0.00 60 1012.8
20260506032250 42 223 0.0 2.0 0.00 0.00 0.00 60 1012.9
20260506032049 42 223 0.0 2.0 0.00 0.00 0.00 60 1012.8
20260506031903 42 223 0.0 2.0 0.00 0.00 0.00 59 1012.8
20260506031849 42 223 0.0 2.0 0.00 0.00 0.00 59 1012.8
20260506031743 42 223 0.0 2.0 0.00 0.00 0.00 59 1012.8
20260506031444 42 223 0.0 1.0 0.00 0.00 0.00 59 1012.8
20260506031401 42 223 0.0 4.0 0.00 0.00 0.00 59 1012.8
20260506031245 42 223 0.0 4.0 0.00 0.00 0.00 59 1012.8
20260506031201 43 223 0.0 4.0 0.00 0.00 0.00 59 1012.7
20260506031138 43 223 0.0 4.0 0.00 0.00 0.00 58 1012.8
20260506030839 43 223 0.0 4.0 0.00 0.00 0.00 59 1012.7
20260506030646 43 223 0.0 4.0 0.00 0.00 0.00 58 1012.7
20260506030435 43 248 0.0 2.0 0.00 0.00 0.00 58 1012.7
20260506030400 43 248 0.0 2.0 0.00 0.00 0.00 58 1012.7
20260506030233 43 248 0.0 2.0 0.00 0.00 0.00 57 1012.6
20260506030137 43 196 0.0 2.0 0.00 0.00 0.00 57 1012.8
20260506025900 43 196 0.0 2.0 0.00 0.00 0.00 57 1012.7
20260506025832 43 196 0.0 2.0 0.00 0.00 0.00 57 1012.8
20260506025636 43 196 0.0 2.0 0.00 0.00 0.00 57 1012.7
20260506025406 43 196 0.0 2.0 0.00 0.00 0.00 57 1012.6
20260506025333 43 196 0.0 2.0 0.00 0.00 0.00 57 1012.6
20260506025200 43 195 0.0 1.0 0.00 0.00 0.00 57 1012.6
20260506025000 43 195 0.0 0.0 0.00 0.00 0.00 57 1012.5
20260506024830 43 189 0.0 0.0 0.00 0.00 0.00 56 1012.5
20260506024805 43 189 0.0 1.0 0.00 0.00 0.00 56 1012.5
20260506024608 44 189 0.0 1.0 0.00 0.00 0.00 56 1012.5
20260506024446 44 189 0.0 1.0 0.00 0.00 0.00 56 1012.4
20260506024303 44 189 0.0 3.0 0.00 0.00 0.00 56 1012.4
20260506024150 44 189 0.0 3.0 0.00 0.00 0.00 56 1012.3
20260506023949 44 189 0.0 3.0 0.00 0.00 0.00 56 1012.3
20260506023748 44 189 0.0 5.0 0.00 0.00 0.00 56 1012.3
20260506023733 44 238 0.0 5.0 0.00 0.00 0.00 55 1012.3
20260506023539 44 238 0.0 5.0 0.00 0.00 0.00 55 1012.4
20260506023310 44 238 0.0 5.0 0.00 0.00 0.00 55 1012.2
20260506023245 44 240 0.0 5.0 0.00 0.00 0.00 55 1012.2
20260506023110 44 240 0.0 5.0 0.00 0.00 0.00 54 1012.1
20260506022906 44 240 0.0 5.0 0.00 0.00 0.00 54 1012.1
20260506022745 44 240 0.0 4.0 0.00 0.00 0.00 54 1012.1
20260506022708 44 210 0.0 3.0 0.00 0.00 0.00 55 1012.1
20260506022601 44 207 0.0 3.0 0.00 0.00 0.00 54 1012.2
20260506022307 44 93 0.0 3.0 0.00 0.00 0.00 54 1012.1
20260506022245 44 83 0.0 3.0 0.00 0.00 0.00 54 1012.1
20260506022106 44 223 0.0 3.0 0.00 0.00 0.00 53 1012.1
20260506021850 44 220 0.0 1.0 0.00 0.00 0.00 54 1012.1
20260506021750 44 220 0.0 1.0 0.00 0.00 0.00 54 1012.1
20260506021651 44 220 0.0 2.0 0.00 0.00 0.00 54 1012.0
20260506021450 44 220 0.0 3.0 0.00 0.00 0.00 54 1011.9
20260506021250 44 259 0.0 3.0 0.00 0.00 0.00 54 1012.0
20260506021032 44 259 0.0 3.0 0.00 0.00 0.00 54 1012.0
20260506020940 45 237 0.0 4.0 0.00 0.00 0.00 53 1011.9
20260506020746 45 237 0.0 4.0 0.00 0.00 0.00 53 1011.9
20260506020613 45 228 0.0 5.0 0.00 0.00 0.00 54 1011.8
20260506020419 45 257 0.0 5.0 0.00 0.00 0.00 53 1011.9
20260506020214 45 258 0.0 5.0 0.00 0.00 0.00 53 1011.8
20260506020013 45 247 0.0 5.0 0.00 0.00 0.00 53 1011.8
20260506015813 45 231 0.0 5.0 0.00 0.00 0.00 54 1011.7
20260506015743 45 245 0.0 6.0 0.00 0.00 0.00 54 1011.7
20260506015611 45 221 0.0 6.0 0.00 0.00 0.00 54 1011.7
20260506015408 45 221 0.0 6.0 0.00 0.00 0.00 53 1011.6
20260506015234 45 221 0.0 6.0 0.00 0.00 0.00 53 1011.5
20260506015205 45 221 0.0 6.0 0.00 0.00 0.00 52 1011.5
20260506015004 45 245 0.0 6.0 0.00 0.00 0.00 53 1011.5
20260506014803 45 255 0.0 3.0 0.00 0.00 0.00 53 1011.5
20260506014732 45 210 0.0 2.0 0.00 0.00 0.00 53 1011.5
20260506014603 45 210 0.0 2.0 0.00 0.00 0.00 53 1011.5
20260506014406 45 210 0.0 2.0 0.00 0.00 0.00 53 1011.5
20260506014232 45 210 0.0 2.0 0.00 0.00 0.00 53 1011.5
20260506014135 45 210 0.0 2.0 0.00 0.00 0.00 53 1011.5
20260506014035 45 210 0.0 2.0 0.00 0.00 0.00 53 1011.4
20260506013732 46 233 0.0 2.0 0.00 0.00 0.00 53 1011.4
20260506013726 46 233 0.0 2.0 0.00 0.00 0.00 53 1011.5
20260506013533 46 193 0.0 2.0 0.00 0.00 0.00 52 1011.4
20260506013344 46 193 0.0 2.0 0.00 0.00 0.00 52 1011.4
20260506013222 46 248 0.0 2.0 0.00 0.00 0.00 52 1011.4
20260506013135 46 161 0.0 1.0 0.00 0.00 0.00 52 1011.4
20260506012934 46 161 0.0 3.0 0.00 0.00 0.00 52 1011.2
20260506012721 46 161 0.0 3.0 0.00 0.00 0.00 52 1011.1
20260506012503 46 161 0.0 3.0 0.00 0.00 0.00 52 1011.2
20260506012357 46 161 0.0 9.0 0.00 0.00 0.00 52 1011.2
20260506012221 46 161 0.0 9.0 0.00 0.00 0.00 51 1011.2
20260506012102 46 0 0.0 9.0 0.00 0.00 0.00 51 1011.1
20260506011831 46 0 0.0 9.0 0.00 0.00 0.00 51 1011.1
20260506011721 46 341 0.0 9.0 0.00 0.00 0.00 52 1011.1
20260506011624 46 216 0.0 9.0 0.00 0.00 0.00 52 1011.2
20260506011422 46 217 0.0 9.0 0.00 0.00 0.00 52 1011.0
20260506011221 47 202 0.0 2.0 0.00 0.00 0.00 51 1011.0
20260506011023 47 202 0.0 2.0 0.00 0.00 0.00 51 1010.9
20260506010823 47 238 0.0 2.0 0.00 0.00 0.00 52 1011.0
20260506010730 47 238 0.0 2.0 0.00 0.00 0.00 52 1011.0
20260506010725 47 238 0.0 2.0 0.00 0.00 0.00 52 1010.9
20260506010458 47 238 0.0 6.0 0.00 0.00 0.00 52 1010.9
20260506010451 47 238 0.0 2.0 0.00 0.00 0.00 52 1010.9
20260506010423 47 238 0.0 6.0 0.00 0.00 0.00 52 1010.9
20260506010029 47 227 0.0 6.0 0.00 0.00 0.00 52 1010.9
20260506005820 47 227 0.0 6.0 0.00 0.00 0.00 52 1010.9
20260506005706 47 237 0.0 6.0 0.00 0.00 0.00 52 1010.9
20260506005618 47 237 0.0 6.0 0.00 0.00 0.00 52 1010.9
20260506005505 47 183 0.0 5.0 0.00 0.00 0.00 52 1010.9
20260506005453 47 240 0.0 6.0 0.00 0.00 0.00 53 1010.9
20260506005423 47 183 0.0 5.0 0.00 0.00 0.00 52 1010.8
20260506005117 47 224 0.0 5.0 0.00 0.00 0.00 51 1010.9
20260506004818 47 224 0.0 5.0 0.00 0.00 0.00 51 1010.9
20260506004635 47 224 0.0 5.0 0.00 0.00 0.00 51 1010.8
20260506004617 47 224 0.0 5.0 0.00 0.00 0.00 52 1010.8
20260506004425 48 226 0.0 3.0 0.00 0.00 0.00 50 1010.8
20260506004421 0 226 0.0 3.0 0.00 0.00 0.00 1010.8
20260506004352 48 226 0.0 3.0 0.00 0.00 0.00 50 1010.8
20260506004005 48 226 0.0 3.0 0.00 0.00 0.00 50 1010.8
20260506003806 48 226 0.0 4.0 0.00 0.00 0.00 50 1010.8
20260506003637 48 226 0.0 4.0 0.00 0.00 0.00 50 1010.8
20260506003533 48 226 0.0 4.0 0.00 0.00 0.00 50 1010.8
20260506003407 48 99 0.0 4.0 0.00 0.00 0.00 50 1010.8
20260506003108 48 223 0.0 4.0 0.00 0.00 0.00 50 1010.8
20260506002906 48 223 0.0 4.0 0.00 0.00 0.00 52 1010.7
20260506002804 48 223 0.0 4.0 0.00 0.00 0.00 49 1010.8
20260506002617 48 243 0.0 7.0 0.00 0.00 0.00 50 1010.8
20260506002507 48 243 0.0 7.0 0.00 0.00 0.00 50 1010.7
20260506002404 48 243 0.0 7.0 0.00 0.00 0.00 48 1010.7
20260506002349 48 243 0.0 7.0 0.00 0.00 0.00 50 1010.6
20260506002324 48 243 0.0 7.0 0.00 0.00 0.00 48 1010.7
20260506001906 48 243 0.0 7.0 0.00 0.00 0.00 48 1010.6
20260506001704 48 243 0.0 7.0 0.00 0.00 0.00 48 1010.6
20260506001609 48 196 0.0 4.0 0.00 0.00 0.00 49 1010.6
20260506001506 48 196 0.0 4.0 0.00 0.00 0.00 49 1010.6
20260506001345 48 183 0.0 4.0 0.00 0.00 0.00 50 1010.5
20260506001341 48 183 0.0 4.0 0.00 0.00 0.00 50 1010.5
20260506001330 48 183 0.0 4.0 0.00 0.00 0.00 50 1010.5
20260506000810 48 182 0.0 4.0 0.00 0.00 0.00 51 1010.5
20260506000601 48 255 0.0 4.0 0.00 0.00 0.00 50 1010.4
20260506000406 48 255 0.0 6.0 0.00 0.00 0.00 50 1010.4
20260506000347 48 243 0.0 6.0 0.00 0.00 0.00 50 1010.5
20260506000327 48 243 0.0 6.0 0.00 0.00 0.00 49 1010.5
20260506000009 48 257 0.0 6.0 0.00 0.00 0.00 50 1010.5
20260505235745 48 257 0.0 6.0 0.00 0.00 0.00 49 1010.4
20260505235603 48 257 0.0 7.0 0.00 0.00 0.00 48 1010.4
20260505235546 48 257 0.0 7.0 0.00 0.00 0.00 48 1010.4
20260505235447 48 252 0.0 7.0 0.00 0.00 0.00 48 1010.5
20260505235352 48 221 0.0 7.0 0.00 0.00 0.00 47 1010.4
20260505235322 48 252 0.0 7.0 0.00 0.00 0.00 47 1010.4
20260505234945 48 262 0.0 7.0 0.00 0.00 0.00 46 1010.4
20260505234730 48 234 0.0 6.0 0.00 0.00 0.00 47 1010.4
20260505234604 48 247 0.0 6.0 0.00 0.00 0.00 47 1010.4
20260505234529 48 245 0.0 6.0 0.00 0.00 0.00 47 1010.4
20260505234428 49 219 0.0 4.0 0.00 0.00 0.00 46 1010.4
20260505234102 49 226 0.0 7.0 0.00 0.00 0.00 46 1010.3
20260505233903 49 226 0.0 7.0 0.00 0.00 0.00 46 1010.4
20260505233842 49 226 0.0 10.0 0.00 0.00 0.00 46 1010.3
20260505233826 49 226 0.0 7.0 0.00 0.00 0.00 46 1010.4
20260505233500 49 226 0.0 10.0 0.00 0.00 0.00 46 1010.4
20260505233259 49 216 0.0 10.0 0.00 0.00 0.00 45 1010.3
20260505233100 50 228 0.0 10.0 0.00 0.00 0.00 46 1010.3
20260505233050 50 251 0.0 10.0 0.00 0.00 0.00 46 1010.3
20260505232910 50 197 0.0 10.0 0.00 0.00 0.00 49 1010.4
20260505232855 49 265 0.0 10.0 0.00 0.00 0.00 46 1010.3
20260505232833 50 247 0.0 6.0 0.00 0.00 0.00 49 1010.3
20260505232452 50 230 0.0 6.0 0.00 0.00 0.00 48 1010.3
20260505232248 50 251 0.0 5.0 0.00 0.00 0.00 48 1010.3
20260505232053 50 227 0.0 5.0 0.00 0.00 0.00 47 1010.2
20260505232048 50 226 0.0 5.0 0.00 0.00 0.00 47 1010.2
20260505231849 50 238 0.0 5.0 0.00 0.00 0.00 46 1010.3
20260505231833 50 245 0.0 7.0 0.00 0.00 0.00 47 1010.3
20260505231810 50 245 0.0 7.0 0.00 0.00 0.00 47 1010.3
20260505231448 50 245 0.0 7.0 0.00 0.00 0.00 47 1010.4
20260505231248 50 243 0.0 7.0 0.00 0.00 0.00 47 1010.4
20260505231130 50 243 0.0 7.0 0.00 0.00 0.00 46 1010.4
20260505231031 50 243 0.0 7.0 0.00 0.00 0.00 46 1010.4
20260505230831 50 233 0.0 7.0 0.00 0.00 0.00 47 1010.3
20260505230630 50 240 0.0 6.0 0.00 0.00 0.00 47 1010.3
20260505230531 50 247 0.0 6.0 0.00 0.00 0.00 47 1010.3
20260505230431 50 265 0.0 3.0 0.00 0.00 0.00 47 1010.4
20260505230315 50 172 0.0 4.0 0.00 0.00 0.00 47 1010.5
20260505230300 50 172 0.0 3.0 0.00 0.00 0.00 47 1010.3
20260505225803 50 172 0.0 5.0 0.00 0.00 0.00 47 1010.4
20260505225557 50 171 0.0 5.0 0.00 0.00 0.00 47 1010.4
20260505225532 50 190 0.0 5.0 0.00 0.00 0.00 47 1010.3
20260505225336 50 244 0.0 5.0 0.00 0.00 0.00 47 1010.4
20260505225330 50 233 0.0 5.0 0.00 0.00 0.00 46 1010.4
20260505225257 50 234 0.0 5.0 0.00 0.00 0.00 46 1010.4
20260505224932 50 268 0.0 5.0 0.00 0.00 0.00 46 1010.4
20260505224734 51 189 0.0 5.0 0.00 0.00 0.00 48 1010.4
20260505224531 51 240 0.0 5.0 0.00 0.00 0.00 46 1010.3
20260505224435 51 286 0.0 5.0 0.00 0.00 0.00 46 1010.4
20260505224259 51 240 0.0 11.0 0.00 0.00 0.00 48 1010.3
20260505224236 51 245 0.0 9.0 0.00 0.00 0.00 48 1010.3
20260505223935 51 192 0.0 11.0 0.00 0.00 0.00 48 1010.3
20260505223735 51 221 0.0 11.0 0.00 0.00 0.00 46 1010.4
20260505223536 51 212 0.0 11.0 0.00 0.00 0.00 46 1010.3
20260505223503 51 224 0.0 11.0 0.00 0.00 0.00 46 1010.3
20260505223335 51 251 0.0 11.0 0.00 0.00 0.00 46 1010.2
20260505223137 51 243 0.0 9.0 0.00 0.00 0.00 46 1010.2
20260505223002 51 250 0.0 7.0 0.00 0.00 0.00 46 1010.2
20260505222932 51 250 0.0 7.0 0.00 0.00 0.00 47 1010.2
20260505222836 51 241 0.0 7.0 0.00 0.00 0.00 47 1010.1
20260505222503 51 241 0.0 7.0 0.00 0.00 0.00 47 1010.2
20260505222436 51 220 0.0 7.0 0.00 0.00 0.00 46 1010.2
20260505222130 51 240 0.0 7.0 0.00 0.00 0.00 46 1010.2
20260505221939 51 204 0.0 7.0 0.00 0.00 0.00 47 1010.1
20260505221931 51 204 0.0 7.0 0.00 0.00 0.00 48 1010.2
20260505221734 51 219 0.0 7.0 0.00 0.00 0.00 45 1010.2
20260505221717 51 233 0.0 7.0 0.00 0.00 0.00 43 1010.2
20260505221659 51 219 0.0 7.0 0.00 0.00 0.00 45 1010.2
20260505221333 51 213 0.0 7.0 0.00 0.00 0.00 43 1010.2
20260505221135 51 240 0.0 1.0 0.00 0.00 0.00 45 1010.2
20260505220929 51 240 0.0 7.0 0.00 0.00 0.00 45 1010.1
20260505220816 51 240 0.0 7.0 0.00 0.00 0.00 45 1010.1
20260505220713 51 240 0.0 7.0 0.00 0.00 0.00 45 1010.1
20260505220649 51 240 0.0 7.0 0.00 0.00 0.00 45 1010.1
20260505220319 51 241 0.0 7.0 0.00 0.00 0.00 45 1010.1
20260505215929 51 258 0.0 2.0 0.00 0.00 0.00 45 1010.1
20260505215901 51 257 0.0 5.0 0.00 0.00 0.00 46 1010.2
20260505215723 51 190 0.0 7.0 0.00 0.00 0.00 46 1010.3
20260505215713 51 190 0.0 5.0 0.00 0.00 0.00 46 1010.2
20260505215643 51 190 0.0 7.0 0.00 0.00 0.00 46 1010.3
20260505215231 51 190 0.0 11.0 0.00 0.00 0.00 46 1010.2
20260505215132 51 190 0.0 11.0 0.00 0.00 0.00 46 1010.3
20260505214910 51 252 0.0 11.0 0.00 0.00 0.00 46 1010.3
20260505214808 51 252 0.0 11.0 0.00 0.00 0.00 46 1010.2
20260505214716 51 258 0.0 11.0 0.00 0.00 0.00 46 1010.3
20260505214657 51 219 0.0 11.0 0.00 0.00 0.00 48 1010.3
20260505214620 51 262 0.0 11.0 0.00 0.00 0.00 46 1010.3
20260505214212 51 251 0.0 7.0 0.00 0.00 0.00 46 1010.3
20260505214206 51 259 0.0 10.0 0.00 0.00 0.00 45 1010.3
20260505214132 51 255 0.0 10.0 0.00 0.00 0.00 44 1010.3
20260505213804 51 221 0.0 7.0 0.00 0.00 0.00 47 1010.3
20260505213706 51 224 0.0 7.0 0.00 0.00 0.00 45 1010.3
20260505213406 51 323 0.0 7.0 0.00 0.00 0.00 46 1010.3
20260505213204 51 226 0.0 4.0 0.00 0.00 0.00 47 1010.4
20260505213004 51 245 0.0 6.0 0.00 0.00 0.00 46 1010.4
20260505212909 51 220 0.0 6.0 0.00 0.00 0.00 44 1010.4
20260505212806 51 353 0.0 6.0 0.00 0.00 0.00 44 1010.4
20260505212602 51 353 0.0 11.0 0.00 0.00 0.00 44 1010.3
20260505212406 51 282 0.0 11.0 0.00 0.00 0.00 45 1010.4
20260505212342 51 282 0.0 11.0 0.00 0.00 0.00 45 1010.3
20260505212142 51 238 0.0 11.0 0.00 0.00 0.00 45 1010.4
20260505212039 51 240 0.0 11.0 0.00 0.00 0.00 48 1010.3
20260505211908 51 234 0.0 11.0 0.00 0.00 0.00 48 1010.3
20260505211741 51 241 0.0 11.0 0.00 0.00 0.00 48 1010.4
20260505211541 51 220 0.0 5.0 0.00 0.00 0.00 46 1010.4
20260505211407 51 251 0.0 6.0 0.00 0.00 0.00 47 1010.2
20260505211339 51 210 0.0 6.0 0.00 0.00 0.00 48 1010.4
20260505211129 51 252 0.0 6.0 0.00 0.00 0.00 48 1010.4
20260505210908 50 164 0.0 6.0 0.00 0.00 0.00 47 1010.5
20260505210731 50 164 0.0 6.0 0.00 0.00 0.00 47 1010.5
20260505210530 50 254 0.0 6.0 0.00 0.00 0.00 47 1010.5
20260505210416 50 254 0.0 4.0 0.00 0.00 0.00 45 1010.6
20260505210407 50 247 0.0 6.0 0.00 0.00 0.00 47 1010.5
20260505210215 50 243 0.0 10.0 0.00 0.00 0.00 45 1010.5
20260505210200 50 237 0.0 6.0 0.00 0.00 0.00 45 1010.5
20260505210121 50 228 0.0 10.0 0.00 0.00 0.00 45 1010.5
20260505205714 51 279 0.0 10.0 0.00 0.00 0.00 45 1010.5
20260505205708 50 251 0.0 10.0 0.00 0.00 0.00 48 1010.5
20260505205658 50 257 0.0 10.0 0.00 0.00 0.00 45 1010.5
20260505205640 51 251 0.0 10.0 0.00 0.00 0.00 48 1010.5
20260505205110 50 217 0.0 10.0 0.00 0.00 0.00 45 1010.5
20260505204910 50 238 0.0 9.0 0.00 0.00 0.00 45 1010.4
20260505204709 50 271 0.0 7.0 0.00 0.00 0.00 47 1010.4
20260505204659 50 52 0.0 10.0 0.00 0.00 0.00 45 1010.4
20260505204640 50 0 0.0 10.0 0.00 0.00 0.00 45 1010.4
20260505204308 50 310 0.0 10.0 0.00 0.00 0.00 45 1010.4
20260505204107 50 240 0.0 11.0 0.00 0.00 0.00 45 1010.5
20260505203917 51 247 0.0 11.0 0.00 0.00 0.00 45 1010.5
20260505203811 50 258 0.0 11.0 0.00 0.00 0.00 46 1010.4
20260505203700 50 245 0.0 11.0 0.00 0.00 0.00 47 1010.5
20260505203638 50 276 0.0 11.0 0.00 0.00 0.00 48 1010.6
20260505203307 50 276 0.0 11.0 0.00 0.00 0.00 47 1010.5
20260505203108 50 233 0.0 9.0 0.00 0.00 0.00 45 1010.6
20260505202912 50 281 0.0 3.0 0.00 0.00 0.00 50 1010.6
20260505202656 50 281 0.0 7.0 0.00 0.00 0.00 50 1010.6
20260505202636 50 281 0.0 7.0 0.00 0.00 0.00 50 1010.6
20260505202614 50 281 0.0 7.0 0.00 0.00 0.00 50 1010.6
20260505202233 50 281 0.0 7.0 0.00 0.00 0.00 50 1010.6
20260505202031 49 262 0.0 7.0 0.00 0.00 0.00 47 1010.7
20260505201851 49 262 0.0 7.0 0.00 0.00 0.00 47 1010.7
20260505201804 49 251 0.0 7.0 0.00 0.00 0.00 48 1010.7
20260505201605 49 240 0.0 7.0 0.00 0.00 0.00 49 1010.6
20260505201403 49 240 0.0 7.0 0.00 0.00 0.00 49 1010.7
20260505201351 49 240 0.0 7.0 0.00 0.00 0.00 49 1010.7
20260505201154 49 252 0.0 9.0 0.00 0.00 0.00 49 1010.7
20260505200953 49 268 0.0 10.0 0.00 0.00 0.00 46 1010.7
20260505200851 50 245 0.0 10.0 0.00 0.00 0.00 46 1010.7
20260505200843 49 279 0.0 10.0 0.00 0.00 0.00 47 1010.7
20260505200539 50 228 0.0 10.0 0.00 0.00 0.00 49 1010.7
20260505200340 50 245 0.0 10.0 0.00 0.00 0.00 49 1010.7
20260505200140 50 234 0.0 10.0 0.00 0.00 0.00 48 1010.6
20260505195934 50 230 0.0 7.0 0.00 0.00 0.00 48 1010.7
20260505195838 50 250 0.0 7.0 0.00 0.00 0.00 48 1010.7
20260505195731 50 251 0.0 7.0 0.00 0.00 0.00 48 1010.7
20260505195533 50 221 0.0 7.0 0.00 0.00 0.00 48 1010.7
20260505195333 50 221 0.0 7.0 0.00 0.00 0.00 48 1010.8
20260505195234 49 257 0.0 7.0 0.00 0.00 0.00 49 1010.7
20260505194937 50 259 0.0 10.0 0.00 0.00 0.00 49 1010.6
20260505194804 50 259 0.0 10.0 0.00 0.00 0.00 49 1010.6
20260505194735 50 259 0.0 10.0 0.00 0.00 0.00 49 1010.6
20260505194508 50 259 0.0 10.0 0.00 0.00 0.00 49 1010.6
20260505194308 50 259 0.0 10.0 0.00 0.00 0.00 49 1010.7
20260505194042 50 248 0.0 10.0 0.00 0.00 0.00 49 1010.8
20260505193836 50 235 0.0 9.0 0.00 0.00 0.00 48 1010.7
20260505193739 50 235 0.0 9.0 0.00 0.00 0.00 48 1010.7
20260505193621 50 237 0.0 9.0 0.00 0.00 0.00 48 1010.7
20260505193533 50 243 0.0 9.0 0.00 0.00 0.00 50 1010.7
20260505193528 50 255 0.0 9.0 0.00 0.00 0.00 49 1010.7
20260505193510 50 255 0.0 9.0 0.00 0.00 0.00 48 1010.7
20260505193009 50 247 0.0 9.0 0.00 0.00 0.00 48 1010.6
20260505192807 50 257 0.0 7.0 0.00 0.00 0.00 47 1010.7
20260505192737 50 257 0.0 7.0 0.00 0.00 0.00 47 1010.7
20260505192607 50 257 0.0 7.0 0.00 0.00 0.00 47 1010.6
20260505192518 50 248 0.0 9.0 0.00 0.00 0.00 47 1010.7
20260505192501 50 258 0.0 7.0 0.00 0.00 0.00 47 1010.8
20260505192142 50 258 0.0 9.0 0.00 0.00 0.00 50 1010.7
20260505191942 50 238 0.0 9.0 0.00 0.00 0.00 48 1010.7
20260505191739 51 244 0.0 9.0 0.00 0.00 0.00 48 1010.6
20260505191734 51 228 0.0 9.0 0.00 0.00 0.00 48 1010.6
20260505191637 51 252 0.0 9.0 0.00 0.00 0.00 46 1010.6
20260505191521 51 258 0.0 7.0 0.00 0.00 0.00 49 1010.7
20260505191458 51 252 0.0 9.0 0.00 0.00 0.00 49 1010.6
20260505191136 51 247 0.0 7.0 0.00 0.00 0.00 54 1010.7
20260505190936 51 224 0.0 7.0 0.00 0.00 0.00 54 1010.7
20260505190733 51 224 0.0 11.0 0.00 0.00 0.00 54 1010.6
20260505190531 50 231 0.0 11.0 0.00 0.00 0.00 52 1010.6
20260505190526 50 244 0.0 14.0 0.00 0.00 0.00 49 1010.8
20260505190454 50 254 0.0 14.0 0.00 0.00 0.00 49 1010.7
20260505190130 50 257 0.0 14.0 0.00 0.00 0.00 49 1010.7
20260505185930 50 221 0.0 14.0 0.00 0.00 0.00 52 1010.7
20260505185732 49 212 0.0 14.0 0.00 0.00 0.00 50 1010.8
20260505185530 49 262 0.0 14.0 0.00 0.00 0.00 47 1010.8
20260505185434 49 240 0.0 10.0 0.00 0.00 0.00 48 1010.8
20260505185234 49 202 0.0 10.0 0.00 0.00 0.00 49 1010.8
20260505185139 49 237 0.0 10.0 0.00 0.00 0.00 49 1010.8
20260505185019 50 252 0.0 10.0 0.00 0.00 0.00 46 1010.9
20260505185007 49 248 0.0 10.0 0.00 0.00 0.00 48 1010.8
20260505184707 50 264 0.0 10.0 0.00 0.00 0.00 46 1010.9
20260505184504 50 250 0.0 10.0 0.00 0.00 0.00 47 1010.8
20260505184253 50 245 0.0 10.0 0.00 0.00 0.00 50 1010.8
20260505184230 50 264 0.0 10.0 0.00 0.00 0.00 49 1010.8
20260505184058 50 248 0.0 13.0 0.00 0.00 0.00 49 1010.9
20260505184032 49 237 0.0 15.0 0.00 0.00 0.00 49 1010.7
20260505184027 49 220 0.0 15.0 0.00 0.00 0.00 49 1010.7
20260505184002 49 257 0.0 15.0 0.00 0.00 0.00 47 1010.8
20260505183441 49 228 0.0 15.0 0.00 0.00 0.00 46 1010.7
20260505183233 49 238 0.0 15.0 0.00 0.00 0.00 46 1010.8
20260505183038 50 251 0.0 15.0 0.00 0.00 0.00 45 1010.6
20260505183028 50 258 0.0 12.0 0.00 0.00 0.00 44 1010.6
20260505183004 50 283 0.0 13.0 0.00 0.00 0.00 44 1010.7
20260505182634 51 254 0.0 12.0 0.00 0.00 0.00 46 1010.6
20260505182430 51 257 0.0 10.0 0.00 0.00 0.00 48 1010.6
20260505182232 51 258 0.0 10.0 0.00 0.00 0.00 44 1010.8
20260505182128 51 289 0.0 10.0 0.00 0.00 0.00 47 1010.6
20260505181831 51 251 0.0 10.0 0.00 0.00 0.00 44 1010.7
20260505181731 51 271 0.0 10.0 0.00 0.00 0.00 43 1010.6
20260505181632 52 257 0.0 10.0 0.00 0.00 0.00 44 1010.7
20260505181428 53 266 0.0 7.0 0.00 0.00 0.00 48 1010.6
20260505181232 52 243 0.0 7.0 0.00 0.00 0.00 52 1010.7
20260505181026 51 248 0.0 7.0 0.00 0.00 0.00 48 1010.7
20260505180827 51 220 0.0 13.0 0.00 0.00 0.00 46 1010.7
20260505180727 51 125 0.0 13.0 0.00 0.00 0.00 51 1010.6
20260505180623 50 54 0.0 13.0 0.00 0.00 0.00 47 1010.7
20260505180427 50 241 0.0 13.0 0.00 0.00 0.00 45 1010.7
20260505180331 50 241 0.0 13.0 0.00 0.00 0.00 45 1010.6
20260505180229 50 241 0.0 13.0 0.00 0.00 0.00 45 1010.6
20260505180032 50 241 0.0 13.0 0.00 0.00 0.00 45 1010.6
20260505175827 50 247 0.0 4.0 0.00 0.00 0.00 45 1010.6
20260505175726 50 248 0.0 2.0 0.00 0.00 0.00 44 1010.6
20260505175626 50 293 0.0 4.0 0.00 0.00 0.00 46 1010.7
20260505175427 50 238 0.0 13.0 0.00 0.00 0.00 43 1010.7
20260505175228 50 238 0.0 13.0 0.00 0.00 0.00 43 1010.7
20260505175027 49 292 0.0 13.0 0.00 0.00 0.00 43 1010.7
20260505174828 49 292 0.0 13.0 0.00 0.00 0.00 43 1010.7
20260505174731 49 278 0.0 13.0 0.00 0.00 0.00 43 1010.7
20260505174727 49 292 0.0 13.0 0.00 0.00 0.00 43 1010.7
20260505174425 50 262 0.0 13.0 0.00 0.00 0.00 44 1010.7
20260505174229 50 238 0.0 7.0 0.00 0.00 0.00 48 1010.6
20260505174026 50 286 0.0 7.0 0.00 0.00 0.00 48 1010.7
20260505173830 49 251 0.0 7.0 0.00 0.00 0.00 48 1010.7
20260505173727 49 251 0.0 9.0 0.00 0.00 0.00 48 1010.6
20260505173628 49 251 0.0 9.0 0.00 0.00 0.00 48 1010.7
20260505173518 48 217 0.0 11.0 0.00 0.00 0.00 48 1010.7
20260505173506 49 251 0.0 9.0 0.00 0.00 0.00 48 1010.6
20260505173440 48 217 0.0 11.0 0.00 0.00 0.00 48 1010.7
20260505173029 48 217 0.0 11.0 0.00 0.00 0.00 48 1010.8
20260505172826 48 217 0.0 11.0 0.00 0.00 0.00 48 1010.8
20260505172725 48 230 0.0 11.0 0.00 0.00 0.00 47 1010.8
20260505172626 48 269 0.0 11.0 0.00 0.00 0.00 47 1010.7
20260505172526 48 261 0.0 12.0 0.00 0.00 0.00 45 1010.8
20260505172511 48 220 0.0 11.0 0.00 0.00 0.00 47 1010.7
20260505172033 49 248 0.0 12.0 0.00 0.00 0.00 46 1010.7
20260505171826 49 272 0.0 12.0 0.00 0.00 0.00 46 1010.7
20260505171727 49 272 0.0 12.0 0.00 0.00 0.00 46 1010.8
20260505171627 49 314 0.0 12.0 0.00 0.00 0.00 46 1010.7
20260505171527 50 257 0.0 12.0 0.00 0.00 0.00 44 1010.8
20260505171512 49 241 0.0 12.0 0.00 0.00 0.00 44 1010.7
20260505171438 50 257 0.0 12.0 0.00 0.00 0.00 44 1010.8
20260505171037 50 252 0.0 12.0 0.00 0.00 0.00 46 1010.8
20260505170826 49 231 0.0 12.0 0.00 0.00 0.00 51 1010.8
20260505170731 48 257 0.0 7.0 0.00 0.00 0.00 49 1010.8
20260505170725 49 228 0.0 7.0 0.00 0.00 0.00 49 1010.8
20260505170529 48 241 0.0 9.0 0.00 0.00 0.00 47 1010.8
20260505170512 48 265 0.0 9.0 0.00 0.00 0.00 48 1010.8
20260505170439 48 241 0.0 9.0 0.00 0.00 0.00 47 1010.8
20260505170031 48 241 0.0 9.0 0.00 0.00 0.00 47 1010.9
20260505165825 49 258 0.0 9.0 0.00 0.00 0.00 46 1010.9
20260505165725 49 252 0.0 9.0 0.00 0.00 0.00 46 1010.8
20260505165625 49 226 0.0 9.0 0.00 0.00 0.00 46 1010.8
20260505165528 49 265 0.0 9.0 0.00 0.00 0.00 47 1010.9
20260505165510 49 135 0.0 9.0 0.00 0.00 0.00 51 1010.8
20260505165437 49 265 0.0 9.0 0.00 0.00 0.00 47 1010.9
20260505165137 49 252 0.0 4.0 0.00 0.00 0.00 47 1010.8
20260505164829 50 227 0.0 7.0 0.00 0.00 0.00 45 1010.9
20260505164727 50 227 0.0 7.0 0.00 0.00 0.00 45 1010.8
20260505164611 50 227 0.0 7.0 0.00 0.00 0.00 45 1010.9
20260505164454 50 227 0.0 9.0 0.00 0.00 0.00 45 1010.9
20260505164444 50 227 0.0 9.0 0.00 0.00 0.00 45 1010.9
20260505164205 50 227 0.0 9.0 0.00 0.00 0.00 45 1010.8
20260505164005 50 227 0.0 9.0 0.00 0.00 0.00 45 1010.8
20260505163807 50 255 0.0 9.0 0.00 0.00 0.00 50 1010.8
20260505163708 49 250 0.0 9.0 0.00 0.00 0.00 52 1010.8
20260505163607 49 226 0.0 9.0 0.00 0.00 0.00 46 1010.8
20260505163556 49 230 0.0 9.0 0.00 0.00 0.00 47 1010.9
20260505163509 48 261 0.0 5.0 0.00 0.00 0.00 46 1010.8
20260505163209 48 261 0.0 5.0 0.00 0.00 0.00 46 1010.8
20260505163009 48 261 0.0 5.0 0.00 0.00 0.00 46 1010.9
20260505162744 48 271 0.0 9.0 0.00 0.00 0.00 45 1010.9
20260505162705 48 271 0.0 12.0 0.00 0.00 0.00 45 1010.9
20260505162540 49 231 0.0 12.0 0.00 0.00 0.00 43 1011.0
20260505162343 50 226 0.0 12.0 0.00 0.00 0.00 48 1011.0
20260505162206 49 228 0.0 12.0 0.00 0.00 0.00 50 1011.0
20260505162131 49 228 0.0 12.0 0.00 0.00 0.00 49 1011.0
20260505161935 48 228 0.0 12.0 0.00 0.00 0.00 45 1011.0
20260505161728 48 226 0.0 12.0 0.00 0.00 0.00 47 1011.0
20260505161708 48 257 0.0 11.0 0.00 0.00 0.00 47 1010.9
20260505161514 48 248 0.0 11.0 0.00 0.00 0.00 49 1010.9
20260505161316 47 276 0.0 10.0 0.00 0.00 0.00 47 1011.0
20260505161203 47 227 0.0 10.0 0.00 0.00 0.00 45 1010.8
20260505161113 47 247 0.0 10.0 0.00 0.00 0.00 44 1010.8
20260505160911 49 248 0.0 10.0 0.00 0.00 0.00 52 1010.9
20260505160708 49 259 0.0 5.0 0.00 0.00 0.00 52 1010.9
20260505160507 49 259 0.0 5.0 0.00 0.00 0.00 52 1010.9
20260505160304 48 252 0.0 4.0 0.00 0.00 0.00 49 1010.8
20260505160200 48 199 0.0 3.0 0.00 0.00 0.00 48 1010.9
20260505160136 48 200 0.0 3.0 0.00 0.00 0.00 48 1010.9
20260505153209 47 79 0.0 4.0 0.00 0.00 0.00 47 1010.9
20260505153111 48 255 0.0 6.0 0.00 0.00 0.00 51 1010.7
20260505153011 48 255 0.0 6.0 0.00 0.00 0.00 51 1010.8
20260505152908 48 252 0.0 6.0 0.00 0.00 0.00 51 1010.8
20260505152604 48 228 0.0 6.0 0.00 0.00 0.00 50 1010.8
20260505152535 48 228 0.0 6.0 0.00 0.00 0.00 50 1010.8
20260505152335 48 228 0.0 6.0 0.00 0.00 0.00 50 1010.9
20260505152103 48 233 0.0 5.0 0.00 0.00 0.00 54 1010.8
20260505151911 47 235 0.0 5.0 0.00 0.00 0.00 54 1010.7
20260505151710 47 235 0.0 5.0 0.00 0.00 0.00 54 1010.8
20260505151602 47 202 0.0 5.0 0.00 0.00 0.00 48 1010.7
20260505151510 47 200 0.0 5.0 0.00 0.00 0.00 48 1010.7
20260505151310 47 228 0.0 9.0 0.00 0.00 0.00 51 1010.8
20260505151209 47 259 0.0 9.0 0.00 0.00 0.00 50 1010.7
20260505151032 47 261 0.0 9.0 0.00 0.00 0.00 51 1010.7
20260505150910 47 178 0.0 9.0 0.00 0.00 0.00 51 1010.7
20260505150712 46 262 0.0 9.0 0.00 0.00 0.00 50 1010.7
20260505150542 46 279 0.0 9.0 0.00 0.00 0.00 51 1010.7
20260505150511 46 244 0.0 9.0 0.00 0.00 0.00 51 1010.7
20260505150311 46 276 0.0 9.0 0.00 0.00 0.00 54 1010.8
20260505150104 46 223 0.0 7.0 0.00 0.00 0.00 53 1010.7
20260505140534 45 250 0.0 2.0 0.00 0.00 0.00 52 1010.3
20260505140432 45 221 0.0 2.0 0.00 0.00 0.00 51 1010.4
20260505140335 45 76 0.0 2.0 0.00 0.00 0.00 53 1010.3
20260505140207 45 76 0.0 3.0 0.00 0.00 0.00 53 1010.3
20260505130308 43 196 0.0 2.0 0.00 0.00 0.00 56 1009.9
20260505130122 43 196 0.0 2.0 0.00 0.00 0.00 56 1009.9
20260505130115 43 196 0.0 2.0 0.00 0.00 0.00 56 1009.9
20260505125027 42 149 0.0 3.0 0.00 0.00 0.00 60 1009.8
20260505124630 42 340 0.0 3.0 0.00 0.00 0.00 61 1009.8
20260505124431 42 340 0.0 3.0 0.00 0.00 0.00 62 1009.8
20260505124327 42 282 0.0 3.0 0.00 0.00 0.00 62 1009.8
20260505124310 42 340 0.0 3.0 0.00 0.00 0.00 62 1009.8
20260505124105 41 0 0.0 5.0 0.00 0.00 0.00 64 1009.7
20260505124052 42 241 0.0 2.0 0.00 0.00 0.00 64 1009.7
20260505124022 41 0 0.0 5.0 0.00 0.00 0.00 64 1009.7
20260505123627 41 0 0.0 5.0 0.00 0.00 0.00 65 1009.6
20260505123421 41 0 0.0 5.0 0.00 0.00 0.00 66 1009.6
20260505123305 41 0 0.0 5.0 0.00 0.00 0.00 67 1009.5
20260505123220 40 0 0.0 5.0 0.00 0.00 0.00 67 1009.6
20260505123107 40 226 0.0 2.0 0.00 0.00 0.00 68 1009.5
20260505123054 40 0 0.0 5.0 0.00 0.00 0.00 67 1009.5
20260505123021 40 226 0.0 2.0 0.00 0.00 0.00 68 1009.5
20260505122715 40 226 0.0 2.0 0.00 0.00 0.00 68 1009.5
20260505122408 40 226 0.0 2.0 0.00 0.00 0.00 69 1009.4
20260505122305 40 226 0.0 4.0 0.00 0.00 0.00 69 1009.4
20260505122203 40 226 0.0 4.0 0.00 0.00 0.00 69 1009.3
20260505122104 39 196 0.0 4.0 0.00 0.00 0.00 71 1009.3
20260505122050 40 197 0.0 4.0 0.00 0.00 0.00 70 1009.3
20260505122016 39 196 0.0 4.0 0.00 0.00 0.00 71 1009.3
20260505121602 39 196 0.0 4.0 0.00 0.00 0.00 71 1009.3
20260505121403 39 196 0.0 4.0 0.00 0.00 0.00 72 1009.2
20260505121259 39 192 0.0 2.0 0.00 0.00 0.00 72 1009.2
20260505121203 39 192 0.0 2.0 0.00 0.00 0.00 73 1009.2
20260505121101 39 192 0.0 2.0 0.00 0.00 0.00 73 1009.2
20260505120806 39 192 0.0 2.0 0.00 0.00 0.00 72 1009.1
20260505120801 39 192 0.0 2.0 0.00 0.00 0.00 72 1009.1
20260505120601 38 192 0.0 1.0 0.00 0.00 0.00 72 1009.2
20260505120403 38 192 0.0 1.0 0.00 0.00 0.00 73 1009.1
20260505120306 38 192 0.0 1.0 0.00 0.00 0.00 73 1009.1
20260505120301 38 192 0.0 1.0 0.00 0.00 0.00 73 1009.0
20260505120004 38 192 0.0 1.0 0.00 0.00 0.00 74 1009.0
20260505115807 38 192 0.0 1.0 0.00 0.00 0.00 75 1009.1
20260505115757 38 192 0.0 1.0 0.00 0.00 0.00 75 1009.1
20260505115607 38 192 0.0 1.0 0.00 0.00 0.00 75 1009.0
20260505115405 38 192 0.0 1.0 0.00 0.00 0.00 75 1009.1
20260505115256 0 190 0.0 1.0 0.00 0.00 0.00 1009.0
20260505115205 37 190 0.0 1.0 0.00 0.00 0.00 77 1009.0
20260505115006 37 190 0.0 1.0 0.00 0.00 0.00 77 1008.9
20260505114807 37 190 0.0 1.0 0.00 0.00 0.00 77 1009.0
20260505114742 37 190 0.0 1.0 0.00 0.00 0.00 77 1009.0
20260505114650 37 190 0.0 1.0 0.00 0.00 0.00 77 1008.8
20260505114348 37 190 0.0 1.0 0.00 0.00 0.00 77 1008.9
20260505114243 37 190 0.0 1.0 0.00 0.00 0.00 77 1008.8
20260505114145 37 190 0.0 1.0 0.00 0.00 0.00 77 1008.8
20260505113945 37 190 0.0 0.0 0.00 0.00 0.00 77 1008.7
20260505113745 37 190 0.0 0.0 0.00 0.00 0.00 77 1008.6
20260505113545 37 190 0.0 0.0 0.00 0.00 0.00 77 1008.7
20260505113524 37 190 0.0 0.0 0.00 0.00 0.00 77 1008.6
20260505113505 37 190 0.0 0.0 0.00 0.00 0.00 77 1008.6
20260505113146 37 190 0.0 0.0 0.00 0.00 0.00 77 1008.5
20260505112946 37 190 0.0 0.0 0.00 0.00 0.00 77 1008.6
20260505112746 37 190 0.0 0.0 0.00 0.00 0.00 77 1008.6
20260505112643 37 190 0.0 0.0 0.00 0.00 0.00 77 1008.5
20260505112341 37 190 0.0 0.0 0.00 0.00 0.00 76 1008.4
20260505112236 37 190 0.0 0.0 0.00 0.00 0.00 76 1008.4
20260505112136 37 190 0.0 0.0 0.00 0.00 0.00 76 1008.5
20260505111937 37 190 0.0 0.0 0.00 0.00 0.00 76 1008.5
20260505111734 37 190 0.0 0.0 0.00 0.00 0.00 76 1008.3
20260505111536 37 190 0.0 0.0 0.00 0.00 0.00 76 1008.2
20260505111334 37 190 0.0 0.0 0.00 0.00 0.00 76 1008.3
20260505111230 37 190 0.0 0.0 0.00 0.00 0.00 76 1008.3
20260505111142 37 190 0.0 0.0 0.00 0.00 0.00 76 1008.3
20260505111025 37 190 0.0 0.0 0.00 0.00 0.00 76 1008.3
20260505110711 37 190 0.0 0.0 0.00 0.00 0.00 76 1008.2
20260505110527 37 190 0.0 0.0 0.00 0.00 0.00 75 1008.2
20260505110328 37 190 0.0 0.0 0.00 0.00 0.00 76 1008.2
20260505110210 37 190 0.0 1.0 0.00 0.00 0.00 76 1008.3
20260505110121 37 190 0.0 1.0 0.00 0.00 0.00 76 1008.2
20260505102207 38 189 0.0 1.0 0.00 0.00 0.00 73 1008.0
20260505102203 38 189 0.0 1.0 0.00 0.00 0.00 73 1008.0
20260505102001 38 189 0.0 1.0 0.00 0.00 0.00 73 1008.0
20260505101924 38 189 0.0 1.0 0.00 0.00 0.00 73 1008.0
20260505101604 38 189 0.0 1.0 0.00 0.00 0.00 72 1007.9
20260505101402 38 189 0.0 1.0 0.00 0.00 0.00 72 1007.9
20260505101303 38 189 0.0 1.0 0.00 0.00 0.00 72 1008.1
20260505101203 38 189 0.0 1.0 0.00 0.00 0.00 72 1008.0
20260505101001 38 189 0.0 1.0 0.00 0.00 0.00 72 1008.0
20260505100925 38 189 0.0 0.0 0.00 0.00 0.00 72 1008.0
20260505100605 38 189 0.0 0.0 0.00 0.00 0.00 71 1008.0
20260505100401 38 189 0.0 0.0 0.00 0.00 0.00 71 1007.9
20260505100206 38 189 0.0 0.0 0.00 0.00 0.00 71 1007.9
20260505100201 38 189 0.0 0.0 0.00 0.00 0.00 71 1007.9
20260505100002 38 189 0.0 0.0 0.00 0.00 0.00 71 1008.0
20260505095802 38 189 0.0 0.0 0.00 0.00 0.00 71 1007.9
20260505095700 38 189 0.0 0.0 0.00 0.00 0.00 71 1008.0
20260505095603 38 189 0.0 2.0 0.00 0.00 0.00 71 1007.9
20260505095402 38 189 0.0 2.0 0.00 0.00 0.00 71 1008.0
20260505095207 39 189 0.0 2.0 0.00 0.00 0.00 71 1007.9
20260505095203 39 189 0.0 2.0 0.00 0.00 0.00 71 1007.9
20260505095103 39 189 0.0 2.0 0.00 0.00 0.00 71 1007.9
20260505094800 39 189 0.0 2.0 0.00 0.00 0.00 71 1008.0
20260505094702 39 189 0.0 2.0 0.00 0.00 0.00 70 1008.0
20260505094602 39 186 0.0 1.0 0.00 0.00 0.00 70 1008.0
20260505094401 39 186 0.0 0.0 0.00 0.00 0.00 70 1008.0
20260505094205 39 186 0.0 0.0 0.00 0.00 0.00 70 1007.9
20260505094201 39 186 0.0 0.0 0.00 0.00 0.00 70 1007.9
20260505094001 39 186 0.0 1.0 0.00 0.00 0.00 70 1008.0
20260505093800 39 186 0.0 1.0 0.00 0.00 0.00 70 1007.8
20260505093700 39 186 0.0 1.0 0.00 0.00 0.00 70 1007.8
20260505093604 39 247 0.0 1.0 0.00 0.00 0.00 70 1007.8
20260505093504 39 247 0.0 1.0 0.00 0.00 0.00 70 1007.8
20260505093206 39 247 0.0 1.0 0.00 0.00 0.00 70 1007.8
20260505093202 39 247 0.0 1.0 0.00 0.00 0.00 70 1007.8
20260505093003 39 247 0.0 1.0 0.00 0.00 0.00 70 1007.8
20260505092950 39 247 0.0 1.0 0.00 0.00 0.00 69 1007.6
20260505092926 39 247 0.0 1.0 0.00 0.00 0.00 69 1007.8
20260505092603 39 247 0.0 1.0 0.00 0.00 0.00 69 1007.6
20260505092406 39 247 0.0 1.0 0.00 0.00 0.00 69 1007.6
20260505092304 39 247 0.0 1.0 0.00 0.00 0.00 69 1007.5
20260505092203 39 247 0.0 1.0 0.00 0.00 0.00 69 1007.5
20260505091955 39 248 0.0 1.0 0.00 0.00 0.00 69 1007.6
20260505091948 39 247 0.0 1.0 0.00 0.00 0.00 69 1007.6
20260505091920 40 248 0.0 1.0 0.00 0.00 0.00 69 1007.6
20260505091533 40 250 0.0 1.0 0.00 0.00 0.00 69 1007.6
20260505091331 40 250 0.0 1.0 0.00 0.00 0.00 69 1007.5
20260505091203 40 250 0.0 1.0 0.00 0.00 0.00 68 1007.4
20260505091125 40 251 0.0 1.0 0.00 0.00 0.00 68 1007.5
20260505091006 40 226 0.0 1.0 0.00 0.00 0.00 68 1007.4
20260505090953 40 250 0.0 1.0 0.00 0.00 0.00 68 1007.5
20260505090922 40 226 0.0 1.0 0.00 0.00 0.00 68 1007.4
20260505090619 40 226 0.0 2.0 0.00 0.00 0.00 68 1007.4
20260505090323 40 226 0.0 2.0 0.00 0.00 0.00 68 1007.5
20260505090203 40 226 0.0 2.0 0.00 0.00 0.00 68 1007.3
20260505090119 40 226 0.0 2.0 0.00 0.00 0.00 68 1007.4
20260505090006 40 227 0.0 2.0 0.00 0.00 0.00 68 1007.4
20260505085951 40 226 0.0 2.0 0.00 0.00 0.00 68 1007.5
20260505085920 40 227 0.0 2.0 0.00 0.00 0.00 68 1007.4
20260505085508 40 228 0.0 2.0 0.00 0.00 0.00 68 1007.3
20260505085305 40 228 0.0 2.0 0.00 0.00 0.00 67 1007.4
20260505085202 40 228 0.0 2.0 0.00 0.00 0.00 67 1007.4
20260505085104 40 228 0.0 2.0 0.00 0.00 0.00 67 1007.3
20260505085005 40 228 0.0 3.0 0.00 0.00 0.00 67 1007.2
20260505084707 40 228 0.0 3.0 0.00 0.00 0.00 67 1007.2
20260505084505 40 251 0.0 3.0 0.00 0.00 0.00 67 1007.2
20260505084305 40 251 0.0 3.0 0.00 0.00 0.00 67 1007.2
20260505084204 40 251 0.0 3.0 0.00 0.00 0.00 67 1007.2
20260505084105 40 251 0.0 4.0 0.00 0.00 0.00 67 1007.2
20260505083905 40 264 0.0 4.0 0.00 0.00 0.00 67 1007.2
20260505083706 40 264 0.0 4.0 0.00 0.00 0.00 67 1007.2
20260505083505 40 244 0.0 4.0 0.00 0.00 0.00 68 1007.1
20260505083306 40 245 0.0 4.0 0.00 0.00 0.00 68 1007.1
20260505083214 40 244 0.0 4.0 0.00 0.00 0.00 69 1007.2
20260505083204 40 245 0.0 4.0 0.00 0.00 0.00 68 1007.1
20260505082905 40 243 0.0 1.0 0.00 0.00 0.00 69 1007.1
20260505082707 40 243 0.0 1.0 0.00 0.00 0.00 69 1007.1
20260505082703 40 243 0.0 1.0 0.00 0.00 0.00 69 1007.1
20260505082503 40 243 0.0 3.0 0.00 0.00 0.00 69 1007.0
20260505082301 40 244 0.0 3.0 0.00 0.00 0.00 69 1007.0
20260505082202 40 243 0.0 3.0 0.00 0.00 0.00 69 1006.9
20260505082102 40 243 0.0 3.0 0.00 0.00 0.00 69 1007.0
20260505081902 40 243 0.0 3.0 0.00 0.00 0.00 69 1006.9
20260505081700 40 243 0.0 3.0 0.00 0.00 0.00 69 1006.9
20260505081639 40 243 0.0 3.0 0.00 0.00 0.00 69 1007.0
20260505081539 40 235 0.0 1.0 0.00 0.00 0.00 70 1006.9
20260505081235 40 235 0.0 1.0 0.00 0.00 0.00 69 1006.8
20260505081159 40 235 0.0 1.0 0.00 0.00 0.00 70 1006.8
20260505081033 40 235 0.0 1.0 0.00 0.00 0.00 69 1006.9
20260505080832 40 235 0.0 1.0 0.00 0.00 0.00 69 1006.9
20260505080658 40 235 0.0 1.0 0.00 0.00 0.00 69 1006.8
20260505080634 40 235 0.0 1.0 0.00 0.00 0.00 69 1006.9
20260505080457 40 235 0.0 2.0 0.00 0.00 0.00 69 1006.9
20260505080448 40 235 0.0 1.0 0.00 0.00 0.00 70 1006.9
20260505080422 40 235 0.0 2.0 0.00 0.00 0.00 69 1006.9
20260505080010 40 235 0.0 2.0 0.00 0.00 0.00 69 1006.9
20260505075802 40 235 0.0 2.0 0.00 0.00 0.00 69 1006.9
20260505075635 40 235 0.0 2.0 0.00 0.00 0.00 69 1006.9
20260505075630 40 235 0.0 2.0 0.00 0.00 0.00 69 1006.9
20260505075335 40 235 0.0 1.0 0.00 0.00 0.00 69 1006.8
20260505075135 40 235 0.0 1.0 0.00 0.00 0.00 69 1006.6
20260505074910 40 235 0.0 1.0 0.00 0.00 0.00 69 1006.6
20260505074713 40 235 0.0 1.0 0.00 0.00 0.00 69 1006.6
20260505074631 40 235 0.0 1.0 0.00 0.00 0.00 69 1006.7
20260505074507 40 235 0.0 1.0 0.00 0.00 0.00 69 1006.6
20260505074307 40 235 0.0 1.0 0.00 0.00 0.00 69 1006.7
20260505074121 40 235 0.0 1.0 0.00 0.00 0.00 69 1006.8
20260505074100 40 235 0.0 1.0 0.00 0.00 0.00 69 1006.8
20260505073954 40 235 0.0 1.0 0.00 0.00 0.00 69 1006.8
20260505073703 40 235 0.0 1.0 0.00 0.00 0.00 69 1006.7
20260505073622 40 235 0.0 1.0 0.00 0.00 0.00 70 1006.7
20260505073504 40 235 0.0 1.0 0.00 0.00 0.00 70 1006.7
20260505073302 40 235 0.0 1.0 0.00 0.00 0.00 70 1006.7
20260505073106 40 235 0.0 2.0 0.00 0.00 0.00 69 1006.7
20260505073102 40 235 0.0 2.0 0.00 0.00 0.00 69 1006.7
20260505072833 40 235 0.0 2.0 0.00 0.00 0.00 69 1006.6
20260505072633 40 235 0.0 2.0 0.00 0.00 0.00 70 1006.7
20260505072600 40 235 0.0 2.0 0.00 0.00 0.00 70 1006.7
20260505072437 40 235 0.0 2.0 0.00 0.00 0.00 70 1006.7
20260505072428 40 235 0.0 2.0 0.00 0.00 0.00 70 1006.6
20260505072346 40 235 0.0 1.0 0.00 0.00 0.00 69 1006.7
20260505072008 40 235 0.0 0.0 0.00 0.00 0.00 69 1006.7
20260505071812 40 235 0.0 1.0 0.00 0.00 0.00 70 1006.7
20260505071610 40 235 0.0 1.0 0.00 0.00 0.00 69 1006.8
20260505071558 40 235 0.0 1.0 0.00 0.00 0.00 69 1006.8
20260505071406 40 235 0.0 1.0 0.00 0.00 0.00 70 1006.7
20260505071206 40 235 0.0 1.0 0.00 0.00 0.00 70 1006.8
20260505071058 40 235 0.0 1.0 0.00 0.00 0.00 70 1006.7
20260505071005 40 235 0.0 1.0 0.00 0.00 0.00 70 1006.8
20260505070805 40 235 0.0 1.0 0.00 0.00 0.00 70 1006.7
20260505070708 40 235 0.0 1.0 0.00 0.00 0.00 70 1006.8
20260505070601 40 235 0.0 1.0 0.00 0.00 0.00 70 1006.8
20260505070407 40 235 0.0 1.0 0.00 0.00 0.00 69 1006.8
20260505070206 40 235 0.0 0.0 0.00 0.00 0.00 69 1006.9
20260505070056 40 235 0.0 0.0 0.00 0.00 0.00 69 1006.9
20260505070003 40 235 0.0 1.0 0.00 0.00 0.00 69 1006.9
20260505065803 0 235 0.0 1.0 0.00 0.00 0.00 1006.9
20260505065550 0 235 0.0 1.0 0.00 0.00 0.00 1006.9
20260505065332 41 235 0.0 1.0 0.00 0.00 0.00 67 1006.9
20260505065132 41 235 0.0 1.0 0.00 0.00 0.00 67 1006.9
20260505065047 41 235 0.0 1.0 0.00 0.00 0.00 67 1006.9
20260505065031 41 235 0.0 1.0 0.00 0.00 0.00 67 1006.9
20260505064704 41 235 0.0 1.0 0.00 0.00 0.00 67 1006.9
20260505064546 41 235 0.0 1.0 0.00 0.00 0.00 67 1006.8
20260505064504 41 235 0.0 1.0 0.00 0.00 0.00 67 1006.9
20260505064303 41 235 0.0 1.0 0.00 0.00 0.00 67 1006.8
20260505064103 41 235 0.0 1.0 0.00 0.00 0.00 68 1006.7
20260505064045 41 235 0.0 1.0 0.00 0.00 0.00 68 1006.7
20260505063903 41 235 0.0 1.0 0.00 0.00 0.00 68 1006.7
20260505063704 41 235 0.0 1.0 0.00 0.00 0.00 68 1006.7
20260505063545 41 235 0.0 1.0 0.00 0.00 0.00 71 1006.7
20260505063507 41 235 0.0 1.0 0.00 0.00 0.00 71 1006.7
20260505063300 41 235 0.0 1.0 0.00 0.00 0.00 68 1006.7
20260505063157 41 235 0.0 1.0 0.00 0.00 0.00 68 1006.7
20260505063047 41 235 0.0 1.0 0.00 0.00 0.00 68 1006.7
20260505062848 41 235 0.0 1.0 0.00 0.00 0.00 68 1006.8
20260505062646 41 235 0.0 1.0 0.00 0.00 0.00 68 1006.7
20260505062546 41 235 0.0 1.0 0.00 0.00 0.00 68 1006.8
20260505062453 41 235 0.0 1.0 0.00 0.00 0.00 68 1006.8
20260505062246 41 235 0.0 1.0 0.00 0.00 0.00 68 1006.7
20260505062047 41 235 0.0 1.0 0.00 0.00 0.00 67 1006.8
20260505061848 41 235 0.0 1.0 0.00 0.00 0.00 68 1006.7
20260505061648 41 235 0.0 1.0 0.00 0.00 0.00 68 1006.8
20260505061549 41 235 0.0 1.0 0.00 0.00 0.00 67 1006.8
20260505061545 41 235 0.0 1.0 0.00 0.00 0.00 67 1006.7
20260505061246 41 235 0.0 1.0 0.00 0.00 0.00 67 1006.8
20260505061046 41 235 0.0 1.0 0.00 0.00 0.00 66 1006.8
20260505060846 41 235 0.0 1.0 0.00 0.00 0.00 66 1006.8
20260505060646 42 235 0.0 1.0 0.00 0.00 0.00 65 1006.8
20260505060541 42 235 0.0 1.0 0.00 0.00 0.00 65 1006.8
20260505060446 42 235 0.0 1.0 0.00 0.00 0.00 65 1006.8
20260505060331 42 235 0.0 1.0 0.00 0.00 0.00 65 1006.9
20260505060321 42 235 0.0 1.0 0.00 0.00 0.00 65 1006.9
20260505060255 42 235 0.0 1.0 0.00 0.00 0.00 65 1006.9
20260505055956 42 235 0.0 1.0 0.00 0.00 0.00 66 1006.9
20260505055645 42 235 0.0 2.0 0.00 0.00 0.00 66 1006.9
20260505055540 42 235 0.0 2.0 0.00 0.00 0.00 65 1006.8
20260505055446 42 235 0.0 2.0 0.00 0.00 0.00 65 1006.8
20260505055333 42 235 0.0 2.0 0.00 0.00 0.00 66 1006.8
20260505055324 42 235 0.0 2.0 0.00 0.00 0.00 65 1006.8
20260505055257 42 235 0.0 2.0 0.00 0.00 0.00 66 1006.8
20260505054846 42 235 0.0 2.0 0.00 0.00 0.00 65 1006.7
20260505054646 42 235 0.0 2.0 0.00 0.00 0.00 65 1006.7
20260505054537 42 235 0.0 2.0 0.00 0.00 0.00 65 1006.7
20260505054446 42 235 0.0 4.0 0.00 0.00 0.00 64 1006.7
20260505054418 42 235 0.0 4.0 0.00 0.00 0.00 65 1006.7
20260505054255 42 235 0.0 4.0 0.00 0.00 0.00 65 1006.7
20260505053847 42 235 0.0 4.0 0.00 0.00 0.00 64 1006.7
20260505053647 42 235 0.0 4.0 0.00 0.00 0.00 64 1006.7
20260505053534 42 235 0.0 3.0 0.00 0.00 0.00 63 1006.8
20260505053447 42 235 0.0 3.0 0.00 0.00 0.00 63 1006.8
20260505053322 42 235 0.0 3.0 0.00 0.00 0.00 63 1006.7
20260505053313 42 235 0.0 3.0 0.00 0.00 0.00 63 1006.8
20260505053250 42 235 0.0 3.0 0.00 0.00 0.00 63 1006.7
20260505052850 43 235 0.0 3.0 0.00 0.00 0.00 63 1006.7
20260505052737 43 231 0.0 1.0 0.00 0.00 0.00 63 1006.7
20260505052532 43 231 0.0 1.0 0.00 0.00 0.00 63 1006.6
20260505052435 43 231 0.0 1.0 0.00 0.00 0.00 63 1006.7
20260505052234 43 230 0.0 2.0 0.00 0.00 0.00 64 1006.6
20260505052008 43 230 0.0 2.0 0.00 0.00 0.00 64 1006.6
20260505051811 43 230 0.0 5.0 0.00 0.00 0.00 64 1006.6
20260505051608 43 230 0.0 5.0 0.00 0.00 0.00 64 1006.5
20260505051530 43 230 0.0 5.0 0.00 0.00 0.00 64 1006.5
20260505051405 43 230 0.0 5.0 0.00 0.00 0.00 64 1006.6
20260505051204 43 230 0.0 5.0 0.00 0.00 0.00 63 1006.6
20260505051004 42 230 0.0 5.0 0.00 0.00 0.00 63 1006.5
20260505050909 42 243 0.0 1.0 0.00 0.00 0.00 63 1006.6
20260505050747 42 243 0.0 2.0 0.00 0.00 0.00 63 1006.5
20260505050333 42 243 0.0 2.0 0.00 0.00 0.00 63 1006.5
20260505050133 42 243 0.0 2.0 0.00 0.00 0.00 63 1006.5
20260505041558 42 241 0.0 1.0 0.00 0.00 0.00 63 1006.4
20260505041425 42 241 0.0 1.0 0.00 0.00 0.00 62 1006.3
20260505041358 42 241 0.0 1.0 0.00 0.00 0.00 62 1006.3
20260505041258 42 241 0.0 1.0 0.00 0.00 0.00 63 1006.3
20260505040954 42 241 0.0 1.0 0.00 0.00 0.00 63 1006.4
20260505040922 42 241 0.0 1.0 0.00 0.00 0.00 63 1006.4
20260505040756 42 241 0.0 1.0 0.00 0.00 0.00 63 1006.4
20260505040540 42 241 0.0 1.0 0.00 0.00 0.00 64 1006.4
20260505040422 42 241 0.0 1.0 0.00 0.00 0.00 63 1006.4
20260505040342 42 241 0.0 1.0 0.00 0.00 0.00 64 1006.4
20260505040140 43 241 0.0 1.0 0.00 0.00 0.00 64 1006.3
20260505035934 43 241 0.0 1.0 0.00 0.00 0.00 64 1006.4
20260505035921 43 241 0.0 1.0 0.00 0.00 0.00 63 1006.4
20260505035745 43 241 0.0 1.0 0.00 0.00 0.00 63 1006.3
20260505035732 43 241 0.0 1.0 0.00 0.00 0.00 64 1006.3
20260505035710 43 241 0.0 1.0 0.00 0.00 0.00 63 1006.3